RH
88 95 92 82 80 88 96 98 99 99 99 99 99 99 99 99 99 99 96 97 96 97 96 94 94 94 95 94 98 98 98 96
96 98 99 97 97 97 97 98 99 98 98 99 99 99 99 99 95 95 94 94 93 95 97 95 94 94 93 92 96 96 98 96
95 99 99 96 98 98 98 98 98 99 98 99 98 98 98 94 95 95 92 91 91 92 94 94 93 94 93 92 93 97 97 96
93 99 99 99 99 99 99 99 98 98 98 98 98 90 87 91 96 96 92 89 90 91 92 92 92 94 95 94 92 90 96 98
92 96 99 99 99 99 98 99 99 98 97 96 90 97 98 97 96 95 95 88 88 87 89 89 91 94 91 91 89 92 93 94
94 94 96 98 99 99 99 99 99 96 90 90 94 91 96 97 97 92 94 92 86 86 89 91 92 92 90 89 89 90 92 93
92 93 93 98 96 98 99 98 96 92 88 87 90 86 96 97 96 98 97 95 92 89 89 92 90 92 90 89 89 88 92 92
95 97 97 92 97 98 98 96 96 90 87 86 89 85 94 92 92 96 96 96 95 93 92 92 93 90 90 90 89 87 88 89
93 96 96 95 90 95 94 94 92 90 90 90 86 80 89 88 91 92 89 89 87 90 91 91 91 88 90 90 92 92 90 92
90 94 95 96 89 90 92 91 89 87 88 89 87 88 92 90 91 91 89 90 85 90 89 90 90 90 88 89 92 90 91 92
86 89 94 93 93 84 92 91 92 91 94 94 90 86 88 89 93 92 93 91 85 89 89 90 91 90 89 90 90 88 91 92
81 83 88 87 93 94 94 94 93 93 92 91 85 86 83 84 88 85 87 85 90 87 86 89 90 87 88 90 90 88 90 90
73 82 88 92 93 93 93 93 91 85 84 82 83 84 83 84 84 82 85 85 87 89 89 88 88 88 88 89 90 86 90 91
71 80 85 88 89 86 86 88 82 78 81 82 83 85 84 85 83 83 85 86 84 84 84 84 82 84 86 90 90 88 85 86
59 73 78 79 81 79 80 79 75 72 77 80 84 84 84 85 86 90 84 77 76 80 87 88 86 82 80 81 83 90 87 84
47 56 66 70 74 74 70 69 70 69 72 79 86 90 90 88 87 85 86 86 86 85 87 84 81 78 80 89 87 88 87 90
40 43 48 56 63 66 65 66 75 71 79 89 82 80 81 88 90 90 90 92 92 93 92 88 87 82 94 95 90 91 90 89
38 40 40 44 51 60 69 73 77 81 81 78 80 85 88 91 91 92 98 98 98 99 98 95 96 96 95 94 94 96 95 94
33 35 46 55 65 71 75 76 81 83 86 88 86 91 97 98 98 99 99 99 100 100 100 98 98 97 95 96 98 99 98 99
Wind_Speed
2 7 8 8 11 12 11 9 10 9 7 7 6 5 6 4 3 4 5 4 5 4 4 4 3 3 2 3 5 4 3 3
3 7 10 13 10 11 12 12 9 8 6 6 5 5 5 3 3 5 5 5 5 5 4 4 3 4 2 4 4 4 3 1
5 6 8 10 9 8 8 9 8 4 4 3 3 4 3 4 3 4 4 5 5 5 5 5 4 4 5 4 3 2 2 3
8 7 7 10 10 9 8 8 8 6 5 6 5 6 5 3 2 3 2 4 5 6 5 4 4 4 4 2 3 3 2 3
8 8 7 8 7 7 7 7 7 6 7 5 10 5 4 3 3 3 3 4 4 5 5 5 5 3 4 3 3 2 3 2
13 11 8 8 9 7 6 6 5 6 6 5 5 6 3 3 4 6 4 4 5 6 5 4 4 4 4 4 4 4 2 3
9 8 10 8 8 7 6 7 7 8 7 7 7 8 6 5 4 4 4 3 4 6 6 5 4 4 4 4 3 5 4 3
13 13 11 11 10 9 7 8 7 8 8 8 7 7 7 8 8 5 5 4 3 6 6 5 4 4 5 4 4 3 3 2
15 15 13 12 12 11 10 10 9 9 9 9 8 9 6 6 8 6 6 6 6 6 7 6 6 6 6 5 3 3 4 3
15 13 12 13 12 13 12 13 11 12 11 8 8 8 8 8 9 8 6 6 5 6 7 7 6 6 7 6 4 4 4 4
12 12 13 12 11 11 10 12 13 11 8 6 7 8 9 9 7 9 7 6 6 7 8 7 6 6 7 7 5 4 5 4
14 12 12 13 11 11 11 10 9 8 9 7 7 7 8 7 7 6 7 7 7 8 8 7 7 7 6 6 6 6 6 5
13 13 13 13 13 13 12 10 9 10 9 8 9 7 6 6 7 7 6 7 6 7 6 6 6 6 6 7 7 6 7 6
12 13 14 14 14 14 13 12 11 10 8 8 7 7 7 7 7 5 4 4 4 4 3 4 5 5 5 6 6 6 5 3
14 13 15 14 14 14 12 10 9 11 8 7 8 8 7 7 7 7 7 7 8 7 7 6 6 6 5 4 2 3 6 6
14 14 15 15 14 14 14 13 12 11 12 11 7 6 6 8 10 10 9 9 9 8 7 7 7 7 5 5 2 6 7 7
17 17 16 16 18 18 15 14 10 9 8 9 10 11 11 10 9 8 9 10 9 8 8 6 7 5 11 10 5 5 7 8
14 14 16 17 17 14 11 9 11 12 13 11 11 11 11 10 9 9 8 9 8 6 7 7 6 4 10 11 10 6 4 6
17 15 8 8 8 12 14 14 13 13 11 11 11 11 11 9 8 8 6 5 6 5 6 6 5 4 10 11 11 7 6 7
Wind_Direction
108 76 75 102 129 128 121 116 119 117 109 101 93 99 97 100 123 117 126 124 114 120 107 86 69 74 53 61 92 68 85 92
124 94 98 102 99 121 133 135 133 135 130 126 126 127 124 109 95 109 114 116 117 117 103 98 79 92 98 116 110 88 77 78
129 109 108 116 117 117 119 129 137 124 118 122 123 133 100 98 99 108 125 111 99 105 112 97 97 105 82 64 93 133 100 191
159 150 146 123 130 133 134 144 145 138 117 109 95 82 81 85 103 84 85 101 103 111 115 125 118 107 116 111 108 119 137 218
156 161 155 131 127 126 136 136 138 138 145 138 161 149 146 162 134 123 125 126 126 133 144 155 152 153 153 149 143 134 120 168
169 172 148 136 137 138 132 139 141 150 161 166 141 120 101 115 113 133 149 164 170 174 172 172 172 157 133 133 131 136 133 129
167 148 136 137 129 137 144 153 161 169 165 163 154 156 140 132 140 156 177 183 190 190 187 186 179 156 165 166 155 160 158 143
163 160 158 150 150 153 154 163 165 171 173 176 174 164 162 164 166 169 172 176 200 211 190 189 181 187 181 167 161 159 160 146
172 171 160 153 155 159 166 170 174 180 187 192 195 166 168 177 178 177 190 194 196 186 193 189 198 184 175 170 170 181 165 168
171 163 156 155 165 171 173 174 186 189 196 199 190 171 170 185 188 185 191 193 189 187 188 193 192 187 183 176 185 193 168 184
170 163 159 159 170 173 174 182 188 189 197 186 184 181 187 190 178 189 190 201 187 178 194 192 191 198 191 183 185 198 190 209
169 164 163 164 164 177 188 188 183 191 193 188 185 181 176 181 188 190 190 184 193 189 190 182 193 195 201 197 205 206 202 208
166 162 164 167 174 181 192 190 195 200 193 183 187 180 164 173 174 177 172 181 186 186 175 181 192 202 202 204 210 207 204 204
165 165 174 176 181 184 188 195 201 198 178 174 167 170 175 174 165 161 143 128 123 108 142 188 202 205 213 228 223 218 213 207
174 176 183 182 183 183 183 188 187 185 164 164 163 178 175 149 126 104 86 82 71 69 60 49 44 48 28 359 202 131 108 96
181 179 186 185 183 188 188 182 185 168 166 169 167 121 108 105 100 105 100 90 86 71 58 38 46 41 25 354 80 116 110 98
193 192 184 182 188 192 188 185 171 149 134 120 121 118 110 99 95 94 98 94 85 84 79 66 46 32 15 18 81 110 119 121
196 200 196 194 192 183 171 133 115 116 117 114 107 102 93 85 80 71 48 60 75 72 74 68 61 42 53 46 64 71 68 102
205 202 173 135 113 115 114 115 113 111 103 101 100 99 89 83 88 89 76 69 80 99 95 93 83 51 75 70 71 74 73 63